Weather History for East Milton, MA

Change the Weather History Date:

Thursday, February 20, 2014

  Actual Average (KBOS) Record (KBOS)
Temperature  
Mean Temperature 38 °F 33 °F  
Max Temperature 46 °F 40 °F 68 °F (1930)
Min Temperature 30 °F 26 °F 0 °F (1950)
Degree Days  
Heating Degree Days 27 32  
Month to date heating degree days 679  
Since 1 July heating degree days 3789  
Cooling Degree Days 0 0  
Month to date cooling degree days 0  
Year to date cooling degree days 0  
Moisture  
Dew Point 26 °F    
Average Humidity 72    
Maximum Humidity 96    
Minimum Humidity 31    
Precipitation  
Precipitation 0.12 in 0.11 in 1.87 in (1934)
Month to date precipitation 2.25  
Year to date precipitation 5.61  
Sea Level Pressure  
Sea Level Pressure 30.14 in    
Wind  
Wind Speed 14 mph (WSW)    
Max Wind Speed 22 mph    
Max Gust Speed 29 mph    
T = Trace of Precipitation, MM = Missing Value Source: NWS Daily Summary

Daily Weather History Graph

Daily Weather History Graph

Search for Another Location

Airport:

Trip Planner

Search our weather history database for the weather conditions in past years. The results will help you decide how hot, cold, wet, or windy it might be!

Date:

Astronomy

Feb. 20, 2014 Rise Set
Actual Time 6:33 AM EST 5:23 PM EST
Civil Twilight 6:05 AM EST 5:51 PM EST
Nautical Twilight 5:32 AM EST 6:24 PM EST
Astronomical Twilight 5:00 AM EST 6:56 PM EST
Moon 11:21 PM EST (2/20) 9:07 AM EST (2/20)
Length of Visible Light 11h 46m
Length of Day
10h 49m
Waning Gibbous, 71% of the Moon is Illuminated
Feb 20
Waning Gibbous
Feb 22
Last Quarter
Mar 1
New
Mar 8
First Quarter
Mar 16
Full

Hourly Weather History & Observations

Time (EST) Temp. Windchill Dew Point Humidity Pressure Visibility Wind Dir Wind Speed Gust Speed Precip Events Conditions
12:54 AM 30.0 °F 18.3 °F 28.9 °F 96% 29.88 in - West 17.3 mph - N/A   Unknown
1:54 AM 30.9 °F 18.1 °F 30.0 °F 96% 29.93 in - WNW 21.9 mph 28.8 mph N/A   Unknown
2:54 AM 32.0 °F 21.6 °F 30.9 °F 96% 29.96 in - West 15.0 mph 21.9 mph N/A   Unknown
3:54 AM 32.0 °F 21.6 °F 30.0 °F 92% 30.00 in - West 15.0 mph - N/A   Unknown
4:54 AM 30.9 °F 20.7 °F 30.0 °F 96% 30.06 in - WSW 13.8 mph - N/A   Unknown
5:54 AM 30.9 °F 21.2 °F 30.0 °F 96% 30.09 in - WSW 12.7 mph - N/A   Unknown
6:54 AM 30.0 °F 18.7 °F 28.9 °F 96% 30.14 in - West 16.1 mph - N/A   Unknown
7:54 AM 30.9 °F 21.7 °F 28.9 °F 92% 30.17 in - West 11.5 mph - N/A   Unknown
8:54 AM 32.0 °F 22.1 °F 28.9 °F 88% 30.20 in - West 13.8 mph 19.6 mph N/A   Unknown
9:54 AM 37.0 °F 29.8 °F 28.9 °F 73% 30.20 in - West 10.4 mph - N/A   Unknown
10:54 AM 39.9 °F 33.9 °F 27.0 °F 60% 30.20 in - WSW 9.2 mph - N/A   Unknown
11:54 AM 42.1 °F 36.6 °F 25.0 °F 51% 30.20 in - WSW 9.2 mph - N/A   Unknown
12:54 PM 45.0 °F 40.1 °F 21.9 °F 40% 30.19 in - WSW 9.2 mph 18.4 mph N/A   Unknown
2:54 PM 46.0 °F 41.0 °F 17.1 °F 31% 30.20 in - WSW 10.4 mph - N/A   Unknown
3:54 PM 45.0 °F 39.7 °F 19.0 °F 36% 30.20 in - SW 10.4 mph - N/A   Unknown
4:54 PM 45.0 °F 39.7 °F 19.0 °F 36% 30.22 in - SSW 10.4 mph - N/A   Unknown
5:54 PM 41.0 °F 34.7 °F 24.1 °F 51% 30.20 in - SSE 10.4 mph - N/A   Unknown
6:54 PM 39.0 °F 31.4 °F 21.0 °F 49% 30.18 in - South 12.7 mph - N/A   Unknown
7:54 PM 39.0 °F 31.8 °F 21.0 °F 49% 30.22 in - SSW 11.5 mph - N/A   Unknown
8:54 PM 39.0 °F 31.0 °F 24.1 °F 55% 30.22 in - SW 13.8 mph - N/A   Unknown
9:54 PM 34.0 °F 28.0 °F 30.9 °F 89% 30.23 in - NW 6.9 mph - 0.04 in   Unknown
10:54 PM 34.0 °F - 32.0 °F 92% 30.20 in - Calm Calm - 0.07 in   Unknown
11:54 PM 33.1 °F 26.1 °F 32.0 °F 96% 30.17 in - East 8.1 mph - 0.01 in   Unknown